This demonstration page uses our WeatherBlox Daily Observations layout. Learn more.

Left ArrowRight Arrow

Hourly Observations for July 11, 2016

Temp ( °F °C ) Dew Point ( °F °C ) Humidity (%) Winds ( mph kmh ) Pressure ( in mb ) Visibility ( mi km ) Precip ( " mm )
12:51 am 00:51 Clear 78 25.6 44 6.7 30 30 NNW 9 15 29.68 1005 10 16 0.00 0.00
1:51 am 01:51 Clear 81 27.2 43 6.1 26 26 NNW 10 17 29.68 1005 10 16 0.00 0.00
2:51 am 02:51 Clear 80 26.7 42 5.6 26 26 NNW 9 15 29.68 1005 10 16 0.00 0.00
3:51 am 03:51 Clear 79 26.1 39 3.9 24 24 NNW 8 13 29.69 1006 10 16 0.00 0.00
4:51 am 04:51 Clear 75 23.9 39 3.9 27 27 NW 9 15 29.71 1006 10 16 0.00 0.00
5:51 am 05:51 Sunny 74 23.3 41 5 31 31 VRB 5 7 29.75 1007 10 16 0.00 0.00
6:51 am 06:51 Sunny 78 25.6 42 5.6 28 28 ESE 3 6 29.76 1008 10 16 0.00 0.00
7:51 am 07:51 Sunny 85 29.4 40 4.4 20 20 S 5 7 29.77 1008 10 16 0.00 0.00
8:51 am 08:51 Sunny 90 32.2 41 5 18 18 VRB 5 7 29.76 1008 10 16 0.00 0.00
9:51 am 09:51 Sunny 95 35 39 3.9 14 14 WNW 12 19 29.75 1008 10 16 0.00 0.00
10:51 am 10:51 Sunny 96 35.6 37 2.8 13 13 WNW 8 13 29.75 1008 10 16 0.00 0.00
11:51 am 11:51 Sunny 98 36.7 37 2.8 12 12 WNW 12 19 29.73 1007 10 16 0.00 0.00
12:51 pm 12:51 Sunny 99 37.2 38 3.3 12 12 VRB 3 6 29.71 1006 10 16 0.00 0.00
1:51 pm 13:51 Sunny 101 38.3 38 3.3 11 11 Calm 29.68 1005 10 16 0.00 0.00
2:51 pm 14:51 Sunny 104 40 38 3.3 10 10 NW 17 28 29.65 1004 10 16 0.00 0.00
3:07 pm 15:07 Sunny 104 40 37 3 10 10 WNW 21 33 29.53 1000 10 16 0.00 0.00
3:51 pm 15:51 Sunny 104 40 36 2.2 9 9 WNW 20 31 29.63 1004 10 16 0.00 0.00
4:51 pm 16:51 Sunny 103 39.4 37 2.8 10 10 NW 17 28 29.63 1003 10 16 0.00 0.00
5:51 pm 17:51 Sunny 102 38.9 37 2.8 10 10 WNW 21 33 29.62 1003 10 16 0.00 0.00
6:51 pm 18:51 Sunny 99 37.2 38 3.3 12 12 WNW 14 22 29.62 1003 10 16 0.00 0.00
7:51 pm 19:51 Clear 95 35 38 3.3 14 14 WNW 15 24 29.63 1003 10 16 0.00 0.00
8:51 pm 20:51 Clear 90 32.2 37 2.8 15 15 NW 10 17 29.66 1004 10 16 0.00 0.00
9:51 pm 21:51 Clear 86 30 37 2.8 18 18 WNW 10 17 29.68 1005 10 16 0.00 0.00
10:51 pm 22:51 Clear 84 28.9 36 2.2 18 18 NW 10 17 29.69 1006 10 16 0.00 0.00
11:51 pm 23:51 Clear 83 28.3 35 1.7 18 18 NW 10 17 29.70 1006 10 16 0.00 0.00

Powered by AerisWeather